Location: Newark
(36.1358°N, 115.1208°W)
Time: 14:45:18
(UTC+00:00)

ISS - Pass Details

Date: 04 October 2021
Orbit: 417 x 423 km, 51.6° (Epoch: 20 October)

Event Time Altitude Azimuth Distance (km) Brightness Sun altitude
Rises 03:44:32 0° 305° (NW) 2,361 1.1 -29.6°
Reaches altitude 10° 03:46:41 10° 299° (WNW) 1,495 -0.1 -30.0°
Enters shadow 03:47:21 15° 295° (WNW) 1,239 -0.6 -30.1°
